TimePST,TemperatureF,Dew PointF,Humidity,Sea Level PressureIn,VisibilityMPH,Wind Direction,Wind SpeedMPH,Gust SpeedMPH,PrecipitationIn,Events,Conditions,WindDirDegrees,DateUTC
12:53 AM,37.0,10.9,34,30.38,10.0,NE,6.9,-,N/A,,Clear,50,2013-01-02 08:53:00
1:53 AM,32.0,12.9,45,30.39,10.0,Calm,Calm,-,N/A,,Clear,0,2013-01-02 09:53:00
2:53 AM,30.9,12.9,47,30.39,10.0,WNW,4.6,-,N/A,,Clear,300,2013-01-02 10:53:00
3:53 AM,33.1,12.0,42,30.37,10.0,NNW,4.6,-,N/A,,Clear,340,2013-01-02 11:53:00
4:53 AM,36.0,10.9,36,30.36,10.0,North,9.2,-,N/A,,Clear,350,2013-01-02 12:53:00
5:53 AM,34.0,10.9,38,30.37,10.0,Calm,Calm,-,N/A,,Clear,0,2013-01-02 13:53:00
6:53 AM,34.0,10.9,38,30.37,10.0,NW,11.5,-,N/A,,Clear,320,2013-01-02 14:53:00
7:53 AM,36.0,10.9,36,30.37,10.0,WNW,4.6,-,N/A,,Clear,290,2013-01-02 15:53:00
8:53 AM,39.0,10.9,32,30.38,10.0,Calm,Calm,-,N/A,,Clear,0,2013-01-02 16:53:00
9:53 AM,42.1,10.9,28,30.38,10.0,Calm,Calm,-,N/A,,Clear,0,2013-01-02 17:53:00
10:53 AM,45.0,10.9,25,30.34,10.0,ESE,3.5,-,N/A,,Clear,120,2013-01-02 18:53:00
11:53 AM,46.0,10.9,24,30.31,10.0,Variable,3.5,-,N/A,,Clear,0,2013-01-02 19:53:00
12:53 PM,46.9,10.9,23,30.25,10.0,Variable,4.6,-,N/A,,Clear,0,2013-01-02 20:53:00
1:53 PM,48.9,10.9,22,30.25,10.0,Calm,Calm,-,N/A,,Clear,0,2013-01-02 21:53:00
2:53 PM,50.0,10.4,20,30.16,10.0,ESE,4.6,-,N/A,,Clear,110,2013-01-02 22:53:00
3:53 PM,50.0,12.0,22,30.23,10.0,South,3.5,-,N/A,,Clear,170,2013-01-02 23:53:00
4:19 PM,50.0,10.4,20,30.15,10.0,Calm,Calm,-,N/A,,Clear,0,2013-01-03 00:19:00
4:53 PM,48.9,12.0,23,30.22,10.0,WSW,3.5,-,N/A,,Clear,240,2013-01-03 00:53:00
5:53 PM,48.0,12.0,24,30.24,10.0,ENE,4.6,-,N/A,,Clear,60,2013-01-03 01:53:00
6:53 PM,46.9,12.0,24,30.26,10.0,NE,3.5,-,N/A,,Clear,40,2013-01-03 02:53:00
7:53 PM,44.1,12.0,27,30.27,10.0,ESE,6.9,-,N/A,,Clear,120,2013-01-03 03:53:00
8:53 PM,41.0,12.0,31,30.30,10.0,SSE,3.5,-,N/A,,Clear,150,2013-01-03 04:53:00
9:53 PM,39.9,12.9,33,30.30,10.0,Calm,Calm,-,N/A,,Clear,0,2013-01-03 05:53:00
10:53 PM,35.1,15.1,44,30.31,10.0,Calm,Calm,-,N/A,,Clear,0,2013-01-03 06:53:00
11:53 PM,37.9,14.0,38,30.29,10.0,Calm,Calm,-,N/A,,Clear,0,2013-01-03 07:53:00